Campbell Airport

Jump to: basic info | weather | frequencies | runways | comments

Related pages: nearby airports | nearby navaids | notams | map

Basic information (top)

Codes: KC81 C81
Location: lon 42.324600, lat -88.074097, elev 788 ft / 240 m msl
Status: small_airport
Scheduled airline service: no
Links: Wikipedia Mobile

Weather (top)

Current conditions for Waukegan Regional Airport 11nm (20km) ENE (rec'd 2014/07/28 07:52Z):

KUGN 280752Z AUTO 31005KT 10SM CLR 14/11 A2995 RMK AO2 SLP131 T01440111

Airport forecast for Kenosha Regional Airport 18nm (32km) NNE (rec'd 2014/07/28 06:21Z):

TAF KENW 280520Z 2806/2906 35010G18KT P6SM SCT035 SCT045 
      TEMPO 2806/2807 BKN045 
     FM281300 36013G21KT P6SM FEW025 
     FM281700 01010G17KT P6SM SCT040 
     FM290200 23005KT P6SM BKN050

Frequencies (top)

Verify before use: may be inaccurate or out of date.

A/D: 120.55 MHz (CHICAGO APP/DEP)
UNIC: 122.7 MHz (CTAF/UNICOM)

Runways (top)

06/24: 3,573 x 40 ft (1,089 x 12 m) — other (COP) — not lighted — threshold 24 displaced 301 ft (92 m)

09/27: 3,270 x 40 ft (997 x 12 m) — paved — lighted

Latest comments (top)

My aviation birthplace.: I did my Private Pilot training here. [read]

More... (top)

See also NOTAMs and nearby airports and navaids, or visit the Campbell Airport page at the main OurAirports website..